Location: Newark
(41.0400°S, 62.7845°W)
Time: 00:13:19
(UTC+00:00)

DIWATA 2B (PO-101) - Pass Details

Date: 02 February 2022
Orbit: 584 x 599 km, 98.0° (Epoch: 16 May)

Event Time Altitude Azimuth Distance (km) Brightness Sun altitude
Rises 07:15:47 0° 176° (S) 2,869 ? -19.9°
Reaches altitude 10° 07:18:05 10° 183° (S) 1,956 ? -19.6°
Maximum altitude 07:22:01 38° 251° (WSW) 921 ? -19.1°
Enters shadow 07:22:38 36° 273° (W) 959 ? -19.0°
